Location: Unspecified
(0.0000°N, 0.0000°E)
Time: 21:53:18
(UTC+00:00)

Tiros 1 - Pass Details

Date: 24 October 2021
Orbit: 630 x 664 km, 48.4° (Epoch: 04 December)

Event Time Altitude Azimuth Distance (km) Brightness Sun altitude
Rises 05:26:14 0° 182° (S) 2,983 10.7 -4.4°
Reaches altitude 10° 05:30:52 10° 141° (SE) 2,074 10.6 -3.3°
Maximum altitude 05:31:41 10° 131° (SE) 2,047 10.9 -3.1°
Drops below altitude 10° 05:32:31 10° 121° (ESE) 2,074 11.3 -2.9°
Sets 05:37:08 0° 80° (E) 2,984 12.1 -1.7°
